FENGYUN 1C DEB

Satellite information

Favourite Embed

Satellite Type and Status

DEBRISIN ORBIT

Key statistics

Satellite FENGYUN 1C DEB at a glance.

Uptime

9665

Days in orbit

Revolutions

≈ 14.2

Per day

Orbit

SSO

Sun Synchronous Orbit

Inclination

98.6

Latest

Satellite identification and parameters

Extended collection of information and parameters for FENGYUN 1C DEB.

Object identification

Identified? True

Debris? True

Object name: FENGYUN 1C DEB

International designator: 1999-025CSM

Object number (NORAD): 32143

Object ID (CCSDS): 32143

Country: PEOPLES REPUBLIC OF CHINA (PRC)

Current information (Y/N): Y

RCS size: SMALL

Orbital parameters

Period: 101.557 minutes

Inclination: 98.5918 deg

SMA: 7210.535 km

Apoapsis: 906.253 km

Periapsis: 758.547 km

RAAN: 276.1655 deg

Eccentricy: 0.01024241

Argument of periapsis: 250.1861 deg

Mean anomaly: 108.825 deg

Mean motion: 14.17919299 rev/day

Mean motion (dot): 0.00000517 rev/day2

B* drag term: 0.00026035941 1/REarth

Two-line elements (TLE)

Creation date: Oct. 25, 2025, 3:11 a.m.

Reference frame: TEME

Reference center: EARTH

Epoch: Oct. 24, 2025, 4:04 p.m. UTC

TLE line 0: 0 FENGYUN 1C DEB

TLE line 1: 1 32143U 99025CSM 25297.66987573 .00000517 00000-0 26036-3 0 9997

TLE line 2: 2 32143 98.5918 276.1655 0102424 250.1861 108.8250 14.17919299952386

Live tracking on map

Real-time ground track for satellite FENGYUN 1C DEB.

In-orbit conjunctions

A list of the most updated potential collisions computed for object FENGYUN 1C DEB.

Target Orbit TCA Probability of collision Miss distance Type
CZ-6A DEB LEO 2025-01-06 22:02:44 0.0002062257 779.0 (m) DEBRIS
IRIDIUM 42 LEO 2024-11-17 17:48:11 0.0001004061 597.0 (m) PAYLOAD

Associated space launch

Chinese polar orbiting meteorological satellite

FENGYUN 1C DEB was lifted into orbit during the mission ‘Long March 4B | Feng Yun 1C’, on board a Long March 4B space rocket.

The launch took place on May 10, 1999, 1:33 a.m. from Launch Complex 7.

For more information about the launch, click the button.

Launch to space Long March 4B | Feng Yun 1C
Long March 4B | Feng Yun 1C

Agency: N/A

Status: Launch Successful

Launch date: May 10, 1999, 1:33 a.m. UTC

Rocket: Long March 4B

Launch pad: Launch Complex 7

Location: Taiyuan Satellite Launch Center, People's Republic of China

...

Latest news about this satellite

There are no fresh news available about this satellite. Check back as we update our databases every day.


Newsletter sign-up

Weekly statistics, charts and insights to help you stay on top of the space industry.